| time (UTC) | temp F | wind direction | speed MPH | gust MPH | rain 1hr in | rain 24hr in | rain mn in | humidity % | barometer mb |
| 20260506181959 | 61 | 187 | 2.0 | 6.0 | 0.03 | 0.20 | 0.20 | 94 | 1007.5 |
| 20260506180948 | 62 | 248 | 3.0 | 10.0 | 0.01 | 0.18 | 0.18 | 93 | 1007.4 |
| 20260506175940 | 62 | 197 | 2.0 | 6.0 | 0.01 | 0.17 | 0.17 | 93 | 1007.5 |
| 20260506174950 | 62 | 223 | 2.0 | 6.0 | 0.02 | 0.17 | 0.17 | 93 | 1007.7 |
| 20260506172952 | 62 | 294 | 3.0 | 7.0 | 0.04 | 0.17 | 0.17 | 93 | 1007.7 |
| 20260506171946 | 62 | 212 | 3.0 | 5.0 | 0.05 | 0.17 | 0.17 | 93 | 1007.8 |
| 20260506170956 | 62 | 202 | 3.0 | 4.0 | 0.07 | 0.17 | 0.17 | 93 | 1007.8 |
| 20260506165946 | 62 | 222 | 0.0 | 7.0 | 0.08 | 0.16 | 0.16 | 93 | 1007.9 |
| 20260506164955 | 62 | 181 | 2.0 | 6.0 | 0.08 | 0.15 | 0.15 | 92 | 1007.6 |
| 20260506163945 | 62 | 227 | 2.0 | 8.0 | 0.09 | 0.14 | 0.14 | 92 | 1007.7 |
| 20260506162954 | 63 | 150 | 2.0 | 8.0 | 0.08 | 0.13 | 0.13 | 93 | 1008.0 |
| 20260506161943 | 62 | 203 | 2.0 | 6.0 | 0.08 | 0.12 | 0.12 | 92 | 1008.4 |
| 20260506160953 | 62 | 196 | 2.0 | 6.0 | 0.07 | 0.10 | 0.10 | 92 | 1008.7 |
| 20260506155942 | 63 | 195 | 1.0 | 4.0 | 0.05 | 0.08 | 0.08 | 91 | 1008.9 |
| 20260506154955 | 63 | 203 | 2.0 | 4.0 | 0.06 | 0.07 | 0.07 | 90 | 1009.0 |
| 20260506153945 | 63 | 212 | 2.0 | 4.0 | 0.05 | 0.05 | 0.05 | 90 | 1009.0 |
| 20260506152954 | 64 | 215 | 2.0 | 4.0 | 0.05 | 0.05 | 0.05 | 89 | 1008.9 |
| 20260506151943 | 64 | 196 | 2.0 | 3.0 | 0.04 | 0.04 | 0.04 | 89 | 1008.8 |
| 20260506145945 | 65 | 216 | 3.0 | 4.0 | 0.03 | 0.03 | 0.03 | 84 | 1008.8 |
| 20260506144954 | 66 | 226 | 3.0 | 6.0 | 0.01 | 0.01 | 0.01 | 81 | 1009.1 |
| 20260506142956 | 66 | 146 | 4.0 | 7.0 | 0.00 | 0.00 | 0.00 | 78 | 1009.0 |
| 20260506140943 | 67 | 242 | 3.0 | 5.0 | 0.00 | 0.00 | 0.00 | 79 | 1008.8 |
| 20260506135953 | 66 | 182 | 2.0 | 4.0 | 0.00 | 0.00 | 0.00 | 78 | 1008.8 |
| 20260506134942 | 66 | 20 | 1.0 | 9.0 | 0.00 | 0.00 | 0.00 | 79 | 1008.9 |
| 20260506133952 | 66 | 258 | 4.0 | 12.0 | 0.00 | 0.00 | 0.00 | 78 | 1008.8 |
| 20260506132941 | 66 | 198 | 4.0 | 9.0 | 0.00 | 0.00 | 0.00 | 78 | 1009.1 |
| 20260506131951 | 66 | 194 | 5.0 | 10.0 | 0.00 | 0.00 | 0.00 | 78 | 1009.2 |
| 20260506130941 | 66 | 212 | 2.0 | 7.0 | 0.00 | 0.00 | 0.00 | 78 | 1009.2 |
| 20260506124942 | 66 | 224 | 2.0 | 5.0 | 0.00 | 0.00 | 0.00 | 79 | 1009.2 |
| 20260506123937 | 66 | 344 | 3.0 | 9.0 | 0.00 | 0.00 | 0.00 | 78 | 1008.8 |
| 20260506122950 | 66 | 211 | 2.0 | 7.0 | 0.00 | 0.00 | 0.00 | 79 | 1008.9 |
| 20260506121940 | 65 | 200 | 3.0 | 6.0 | 0.00 | 0.00 | 0.00 | 79 | 1008.9 |
| 20260506120953 | 65 | 173 | 2.0 | 6.0 | 0.00 | 0.00 | 0.00 | 79 | 1009.1 |
| 20260506115943 | 65 | 260 | 2.0 | 7.0 | 0.00 | 0.00 | 0.00 | 79 | 1009.0 |
| 20260506114953 | 65 | 137 | 2.0 | 8.0 | 0.00 | 0.00 | 0.00 | 80 | 1009.2 |
| 20260506113943 | 65 | 186 | 3.0 | 5.0 | 0.00 | 0.00 | 0.00 | 80 | 1009.3 |
| 20260506112953 | 65 | 265 | 3.0 | 9.0 | 0.00 | 0.00 | 0.00 | 80 | 1009.3 |
| 20260506111942 | 65 | 229 | 3.0 | 6.0 | 0.00 | 0.00 | 0.00 | 81 | 1009.2 |
| 20260506110953 | 64 | 212 | 0.0 | 7.0 | 0.00 | 0.00 | 0.00 | 82 | 1009.1 |
| 20260506105943 | 64 | 156 | 1.0 | 5.0 | 0.00 | 0.00 | 0.00 | 82 | 1009.0 |
| 20260506104952 | 64 | 203 | 2.0 | 6.0 | 0.00 | 0.00 | 0.00 | 82 | 1008.9 |
| 20260506103940 | 64 | 202 | 2.0 | 4.0 | 0.00 | 0.00 | 0.00 | 82 | 1008.7 |
| 20260506102950 | 64 | 139 | 0.0 | 5.0 | 0.00 | 0.00 | 0.00 | 82 | 1008.8 |
| 20260506101939 | 64 | 85 | 0.0 | 4.0 | 0.00 | 0.00 | 0.00 | 82 | 1008.9 |
| 20260506100950 | 64 | 202 | 3.0 | 5.0 | 0.00 | 0.00 | 0.00 | 82 | 1008.9 |
| 20260506095940 | 64 | 220 | 0.0 | 4.0 | 0.00 | 0.00 | 0.00 | 82 | 1008.7 |
| 20260506094949 | 64 | 95 | 1.0 | 5.0 | 0.00 | 0.00 | 0.00 | 82 | 1008.8 |
| 20260506093943 | 64 | 203 | 0.0 | 4.0 | 0.00 | 0.00 | 0.00 | 82 | 1008.7 |
| 20260506092953 | 64 | 202 | 3.0 | 5.0 | 0.00 | 0.00 | 0.00 | 82 | 1008.6 |
| 20260506091942 | 64 | 160 | 2.0 | 10.0 | 0.00 | 0.00 | 0.00 | 82 | 1008.6 |
| 20260506090952 | 64 | 198 | 1.0 | 6.0 | 0.00 | 0.00 | 0.00 | 82 | 1008.8 |
| 20260506084952 | 64 | 204 | 0.0 | 4.0 | 0.00 | 0.00 | 0.00 | 81 | 1009.0 |
| 20260506083942 | 64 | 120 | 0.0 | 5.0 | 0.00 | 0.00 | 0.00 | 81 | 1008.9 |
| 20260506082951 | 64 | 191 | 0.0 | 4.0 | 0.00 | 0.00 | 0.00 | 80 | 1009.0 |
| 20260506081940 | 64 | 55 | 1.0 | 5.0 | 0.00 | 0.00 | 0.00 | 80 | 1009.0 |
| 20260506080955 | 64 | 202 | 2.0 | 7.0 | 0.00 | 0.00 | 0.00 | 79 | 1009.1 |
| 20260506072937 | 66 | 177 | 3.0 | 9.0 | 0.00 | 0.00 | 0.00 | 75 | 1009.0 |
| 20260506061955 | 67 | 7 | 2.0 | 8.0 | 0.00 | 0.00 | 0.00 | 71 | 1009.5 |
| 20260506050948 | 66 | 205 | 1.0 | 4.0 | 0.00 | 0.00 | 0.00 | 70 | 1010.0 |
| 20260506044951 | 66 | 180 | 1.0 | 4.0 | 0.00 | 0.00 | 0.00 | 70 | 1010.0 |
| 20260506043945 | 66 | 196 | 0.0 | 5.0 | 0.00 | 0.00 | 0.00 | 70 | 1010.0 |
| 20260506041946 | 66 | 219 | 1.0 | 3.0 | 0.00 | 0.00 | 0.00 | 69 | 1010.1 |
| 20260506040956 | 66 | 138 | 1.0 | 4.0 | 0.00 | 0.00 | 0.00 | 69 | 1010.2 |
| 20260506034955 | 67 | 246 | 0.0 | 2.0 | 0.00 | 0.00 | 0.00 | 68 | 1010.2 |
| 20260506033943 | 67 | 311 | 0.0 | 3.0 | 0.00 | 0.00 | 0.00 | 67 | 1010.1 |
| 20260506032952 | 68 | 231 | 1.0 | 4.0 | 0.00 | 0.00 | 0.00 | 66 | 1010.1 |
| 20260506031942 | 68 | 191 | 1.0 | 7.0 | 0.00 | 0.00 | 0.00 | 65 | 1010.0 |
| 20260506030936 | 68 | 209 | 2.0 | 5.0 | 0.00 | 0.00 | 0.00 | 64 | 1010.0 |
| 20260506025947 | 69 | 160 | 2.0 | 5.0 | 0.00 | 0.00 | 0.00 | 63 | 1010.1 |
| 20260506023948 | 70 | 96 | 1.0 | 5.0 | 0.00 | 0.00 | 0.00 | 58 | 1010.0 |
| 20260506022937 | 71 | 146 | 1.0 | 7.0 | 0.00 | 0.00 | 0.00 | 56 | 1009.9 |
| 20260506021946 | 71 | 157 | 2.0 | 7.0 | 0.00 | 0.00 | 0.00 | 55 | 1009.8 |
| 20260506020955 | 71 | 85 | 2.0 | 9.0 | 0.00 | 0.00 | 0.00 | 53 | 1009.8 |
| 20260506015944 | 72 | 196 | 0.0 | 4.0 | 0.00 | 0.00 | 0.00 | 52 | 1009.8 |
| 20260506013945 | 72 | 201 | 1.0 | 4.0 | 0.00 | 0.00 | 0.00 | 51 | 1009.5 |
| 20260506012939 | 72 | 127 | 2.0 | 6.0 | 0.00 | 0.00 | 0.00 | 50 | 1009.4 |
| 20260506011946 | 73 | 199 | 2.0 | 5.0 | 0.00 | 0.00 | 0.00 | 50 | 1009.4 |
| 20260506010938 | 73 | 177 | 2.0 | 7.0 | 0.00 | 0.00 | 0.00 | 50 | 1009.3 |
| 20260506005949 | 73 | 207 | 1.0 | 5.0 | 0.00 | 0.00 | 0.00 | 51 | 1009.1 |
| 20260506004938 | 73 | 219 | 1.0 | 6.0 | 0.00 | 0.00 | 0.00 | 50 | 1009.0 |
| 20260506003948 | 74 | 122 | 2.0 | 5.0 | 0.00 | 0.00 | 0.00 | 49 | 1008.9 |
| 20260506002937 | 74 | 223 | 3.0 | 6.0 | 0.00 | 0.00 | 0.00 | 48 | 1008.7 |
| 20260506001946 | 74 | 190 | 2.0 | 5.0 | 0.00 | 0.00 | 0.00 | 46 | 1008.7 |
| 20260506000955 | 74 | 175 | 2.0 | 5.0 | 0.00 | 0.00 | 0.00 | 45 | 1008.6 |
| 20260505235949 | 75 | 202 | 0.0 | 4.0 | 0.00 | 0.00 | 0.00 | 44 | 1008.4 |
| 20260505234938 | 75 | 181 | 1.0 | 5.0 | 0.00 | 0.00 | 0.00 | 43 | 1008.3 |
| 20260505233947 | 75 | 192 | 2.0 | 5.0 | 0.00 | 0.00 | 0.00 | 43 | 1008.4 |
| 20260505232936 | 76 | 48 | 2.0 | 6.0 | 0.00 | 0.00 | 0.00 | 42 | 1008.3 |
| 20260505231945 | 77 | 190 | 4.0 | 8.0 | 0.00 | 0.00 | 0.00 | 41 | 1008.1 |
| 20260505230936 | 77 | 115 | 4.0 | 7.0 | 0.00 | 0.00 | 0.00 | 40 | 1008.1 |
| 20260505224936 | 78 | 186 | 3.0 | 7.0 | 0.00 | 0.00 | 0.00 | 39 | 1007.8 |
| 20260505223946 | 78 | 211 | 5.0 | 8.0 | 0.00 | 0.00 | 0.00 | 38 | 1007.8 |
| 20260505222940 | 78 | 199 | 3.0 | 8.0 | 0.00 | 0.00 | 0.00 | 38 | 1007.5 |
| 20260505220941 | 78 | 221 | 5.0 | 9.0 | 0.00 | 0.00 | 0.00 | 37 | 1007.6 |
| 20260505215950 | 78 | 226 | 5.0 | 9.0 | 0.00 | 0.00 | 0.00 | 37 | 1007.7 |
| 20260505214940 | 78 | 287 | 6.0 | 10.0 | 0.00 | 0.00 | 0.00 | 36 | 1008.0 |
| 20260505213949 | 78 | 252 | 5.0 | 13.0 | 0.00 | 0.00 | 0.00 | 36 | 1007.8 |
| 20260505212937 | 79 | 221 | 5.0 | 10.0 | 0.00 | 0.00 | 0.00 | 36 | 1007.8 |
| 20260505211946 | 79 | 220 | 7.0 | 13.0 | 0.00 | 0.00 | 0.00 | 35 | 1007.3 |
| 20260505210955 | 79 | 220 | 5.0 | 9.0 | 0.00 | 0.00 | 0.00 | 36 | 1007.6 |
| 20260505204941 | 80 | 233 | 6.0 | 10.0 | 0.00 | 0.00 | 0.00 | 34 | 1007.4 |
| 20260505203952 | 82 | 246 | 5.0 | 14.0 | 0.00 | 0.00 | 0.00 | 34 | 1007.4 |
| 20260505202941 | 82 | 200 | 5.0 | 10.0 | 0.00 | 0.00 | 0.00 | 32 | 1007.6 |
| 20260505201947 | 82 | 214 | 6.0 | 10.0 | 0.00 | 0.00 | 0.00 | 34 | 1007.6 |
| 20260505200937 | 83 | 284 | 6.0 | 10.0 | 0.00 | 0.00 | 0.00 | 37 | 1007.4 |
| 20260505195946 | 83 | 202 | 7.0 | 13.0 | 0.00 | 0.00 | 0.00 | 36 | 1007.5 |
| 20260505194937 | 82 | 246 | 5.0 | 11.0 | 0.00 | 0.00 | 0.00 | 36 | 1007.6 |
| 20260505193949 | 82 | 163 | 7.0 | 14.0 | 0.00 | 0.00 | 0.00 | 35 | 1007.8 |
| 20260505192940 | 82 | 221 | 3.0 | 11.0 | 0.00 | 0.00 | 0.00 | 36 | 1007.6 |
| 20260505185939 | 83 | 192 | 6.0 | 12.0 | 0.00 | 0.00 | 0.00 | 35 | 1007.8 |
| 20260505182954 | 82 | 283 | 5.0 | 16.0 | 0.00 | 0.00 | 0.00 | 36 | 1008.3 |